Tracking 25723 objects as of 27-Jun-2022
HD Live streaming from Space Station
objects crossing your sky now

DMSP 5D-2 F13 DEB

Track DMSP 5D-2 F13 DEB now!
10-day predictions


NORAD ID: 42261
Int'l Code: 1995-015GB
Perigee: 716.2 km
Apogee: 844.8 km
Inclination: 98.5 °
Period: 100.3 minutes
Semi major axis: 7151 km
RCS: Unknown
Launch date: March 24, 1995
Source: United States (US)
Launch site: AIR FORCE WESTERN TEST RANGE (AFWTR)

Note: This is SATELLITE DEBRIS
aabbcc
Your satellite tracking list
Your tracking list is empty




NASA's NSSDC Master Catalog

Two Line Element Set (TLE):
1 42261U 95015GB  22176.90333009  .00000371  00000-0  13800-3 0  9996
2 42261  98.4974 223.8041 0089916  12.8925 347.4530 14.35499588357409
Source of the keplerian elements: AFSPC